PBO Station Position Time Series. Reference Frame : NAM14
Format Version,1.1.0
4-character ID,P160
Station name,RohnerAir_CN2005
Begin Date, 2005-05-05
End Date, 2019-10-07
Release Date, 2019-10-08
Reference position, 40.5512522576 North Latitude, -124.1332714160 East Longitude, 94.23420 meters elevation,
Date, North (mm), East (mm), Vertical (mm), North Std. Deviation (mm), East Std. Deviation (mm),              Vertical Std. Deviation (mm), Quality,
2005-05-05,0.00, 0.00, 0.00, 2.12, 1.57, 7.24, repro,
2005-05-06,0.56, -0.07, -9.02, 2.11, 1.58, 7.22, repro,
2005-05-07,1.13, 0.41, -6.34, 2.14, 1.59, 7.28, repro,
2005-05-08,2.89, -0.63, -4.69, 2.14, 1.59, 7.25, repro,
2005-05-09,-0.41, -0.94, -8.31, 2.18, 1.63, 7.32, repro,
2005-05-10,-0.47, -0.50, -2.77, 2.19, 1.63, 7.53, repro,
2005-05-11,1.30, 1.03, -13.07, 2.22, 1.66, 7.61, repro,
2005-05-12,0.61, -0.04, -7.24, 2.20, 1.68, 7.71, repro,
2005-05-13,1.52, -0.86, -7.53, 2.31, 1.76, 7.96, repro,
2005-05-14,0.89, -0.41, -1.33, 2.18, 1.70, 7.53, repro,
2005-05-15,0.11, -1.15, 3.59, 2.16, 1.66, 7.45, repro,
2005-05-16,-0.82, -0.38, -0.17, 2.19, 1.68, 7.51, repro,
2005-05-17,1.49, -0.36, -2.56, 2.22, 1.66, 7.51, repro,
2005-05-18,0.51, -4.06, 9.19, 2.29, 1.71, 7.81, repro,
2005-05-19,1.04, 0.47, 4.20, 2.15, 1.64, 7.38, repro,
2005-05-20,0.84, -0.39, -8.62, 2.14, 1.64, 7.34, repro,
2005-05-21,1.28, 1.07, -14.05, 2.15, 1.64, 7.36, repro,
2005-05-22,0.96, -1.11, -10.64, 2.15, 1.64, 7.37, repro,
2005-05-23,1.05, 0.18, -2.82, 2.14, 1.65, 7.39, repro,
2005-05-24,1.09, -0.94, -6.91, 2.15, 1.64, 7.35, repro,
2005-05-25,1.29, -0.20, -11.04, 2.14, 1.64, 7.35, repro,
2005-05-26,1.60, -0.14, -11.18, 2.15, 1.64, 7.36, repro,
2005-05-27,2.00, -0.91, -8.25, 2.15, 1.65, 7.39, repro,
2005-05-28,0.60, -0.67, -6.77, 2.14, 1.64, 7.40, repro,
2005-05-29,2.23, -1.39, -5.13, 2.34, 1.84, 8.41, repro,
2005-05-30,1.00, -0.63, -3.90, 2.17, 1.64, 7.40, repro,
2005-05-31,0.93, -1.54, -5.21, 2.16, 1.64, 7.42, repro,
2005-06-01,0.52, 1.37, -6.35, 2.13, 1.59, 7.26, repro,
2005-06-02,0.34, 1.02, -4.02, 2.13, 1.59, 7.26, repro,
2005-06-03,1.33, -1.12, -7.21, 2.13, 1.58, 7.24, repro,
2005-06-04,-0.55, 0.57, -2.83, 2.13, 1.58, 7.21, repro,
2005-06-05,0.56, -0.78, -4.04, 2.13, 1.59, 7.26, repro,
2005-06-06,0.24, -0.15, -4.86, 2.13, 1.59, 7.26, repro,
2005-06-07,-0.07, -0.20, 0.24, 2.15, 1.64, 7.51, repro,
2005-06-08,1.32, 0.27, 0.52, 2.14, 1.59, 7.30, repro,
2005-06-09,0.40, -1.10, -5.57, 2.14, 1.60, 7.35, repro,
2005-06-10,0.05, -1.06, -3.64, 2.18, 1.64, 7.46, repro,
2005-06-11,-1.44, 0.86, -0.39, 2.17, 1.64, 7.43, repro,
2005-06-12,2.26, 1.08, -8.72, 2.23, 1.67, 7.57, repro,
2005-06-13,0.95, -0.22, -7.11, 2.25, 1.68, 7.67, repro,
2005-06-14,-0.04, -1.00, -9.38, 2.24, 1.67, 7.65, repro,
2005-06-15,1.95, -4.16, -6.99, 2.14, 1.59, 7.27, repro,
2005-06-16,0.70, -4.46, 0.60, 2.21, 1.62, 7.41, repro,
2005-06-17,1.45, -2.67, 0.39, 2.21, 1.61, 7.40, repro,
2005-06-18,2.61, -2.94, -4.03, 2.13, 1.59, 7.21, repro,
2005-06-19,1.84, -3.31, -7.42, 2.15, 1.60, 7.33, repro,
2005-06-20,2.72, -2.40, -7.65, 2.15, 1.59, 7.28, repro,
2005-06-21,0.68, -3.11, -6.52, 2.13, 1.58, 7.21, repro,
2005-06-22,3.42, -2.07, -14.19, 2.12, 1.58, 7.25, repro,
2005-06-23,1.99, -2.46, -11.52, 2.18, 1.63, 7.32, repro,
2005-06-24,1.75, -2.86, -3.37, 2.12, 1.59, 7.22, repro,
2005-06-25,0.47, -2.92, -10.21, 2.16, 1.59, 7.32, repro,
2005-06-26,0.31, -2.47, -8.81, 2.22, 1.62, 7.41, repro,
2005-06-27,2.58, -2.95, -8.76, 2.13, 1.57, 7.19, repro,
2005-06-28,0.88, -2.84, -5.91, 2.12, 1.58, 7.23, repro,
2005-06-29,1.76, -3.23, -9.25, 2.13, 1.59, 7.22, repro,
2005-06-30,1.39, -3.13, -6.80, 2.12, 1.58, 7.19, repro,
2005-07-01,1.04, -2.36, -8.65, 2.13, 1.59, 7.25, repro,
2005-07-02,0.40, -1.90, -6.35, 2.12, 1.58, 7.20, repro,
2005-07-03,0.85, -2.68, -4.51, 2.12, 1.58, 7.22, repro,
2005-07-04,0.46, -2.17, -8.73, 2.12, 1.58, 7.23, repro,
2005-07-05,0.29, -3.44, -8.51, 2.11, 1.58, 7.19, repro,
2005-07-06,1.96, -2.79, -6.05, 2.12, 1.59, 7.24, repro,
2005-07-07,0.34, -2.71, -9.89, 2.18, 1.62, 7.35, repro,
2005-07-08,1.37, -2.29, -5.23, 2.13, 1.59, 7.24, repro,
2005-07-09,1.79, -2.86, -5.63, 2.14, 1.60, 7.31, repro,
2005-07-10,3.39, -3.07, -8.80, 2.24, 1.68, 7.66, repro,
2005-07-11,0.66, -2.91, -2.86, 2.11, 1.59, 7.21, repro,
2005-07-12,1.15, -2.24, -6.14, 2.10, 1.58, 7.17, repro,
2005-07-13,1.70, -2.01, -7.43, 2.12, 1.58, 7.23, repro,
2005-07-14,0.89, -2.77, -2.95, 2.17, 1.64, 7.44, repro,
2005-07-15,1.36, -1.19, -2.76, 2.13, 1.58, 7.23, repro,
2005-07-16,1.38, -3.00, -5.77, 2.11, 1.58, 7.19, repro,
2005-07-17,0.07, -2.48, -5.46, 2.11, 1.58, 7.19, repro,
2005-07-18,1.18, -2.55, -4.08, 2.11, 1.59, 7.23, repro,
2005-07-19,1.28, -2.24, -1.45, 2.13, 1.58, 7.24, repro,
2005-07-20,1.65, -2.86, -6.87, 2.13, 1.59, 7.26, repro,
2005-07-21,1.14, -2.79, -3.22, 2.14, 1.59, 7.26, repro,
2005-07-22,2.28, -2.46, 0.68, 2.10, 1.58, 7.20, repro,
2005-07-23,0.70, -2.42, -5.41, 2.12, 1.58, 7.21, repro,
2005-07-24,1.47, -2.13, -1.77, 2.16, 1.62, 7.43, repro,
2005-07-25,1.74, -2.34, -4.50, 2.16, 1.62, 7.46, repro,
2005-07-26,0.59, -2.92, -6.37, 2.20, 1.68, 7.59, repro,
2005-07-27,1.86, -2.10, -1.45, 2.19, 1.68, 7.52, repro,
2005-07-28,-0.70, -3.70, -3.82, 2.19, 1.68, 7.54, repro,
2005-07-29,1.67, -3.04, -2.76, 2.23, 1.66, 7.60, repro,
2005-07-30,1.75, -1.41, -8.71, 2.17, 1.62, 7.46, repro,
2005-07-31,1.30, -2.07, -2.92, 2.17, 1.62, 7.47, repro,
2005-08-01,2.13, -3.19, -4.03, 2.16, 1.61, 7.41, repro,
2005-08-02,0.89, -1.89, -2.48, 2.16, 1.62, 7.42, repro,
2005-08-03,0.84, -2.10, -1.00, 2.12, 1.58, 7.20, repro,
2005-08-04,0.89, -2.44, -1.50, 2.13, 1.59, 7.28, repro,
2005-08-05,0.97, -2.16, -3.85, 2.13, 1.59, 7.26, repro,
2005-08-06,2.50, -2.17, -0.77, 2.12, 1.58, 7.22, repro,
2005-08-07,1.65, -1.42, -7.42, 2.13, 1.58, 7.22, repro,
2005-08-08,1.45, -1.63, -3.72, 2.11, 1.58, 7.16, repro,
2005-08-09,2.28, -2.83, -4.49, 2.17, 1.64, 7.40, repro,
2005-08-10,1.79, -1.73, -5.72, 2.21, 1.64, 7.49, repro,
2005-08-11,2.36, -1.49, -8.34, 2.22, 1.70, 7.61, repro,
2005-08-12,2.61, -2.23, -6.17, 2.22, 1.70, 7.63, repro,
2005-08-13,2.08, -2.78, -2.37, 2.16, 1.63, 7.39, repro,
2005-08-14,1.84, -2.82, 0.89, 2.64, 1.83, 8.70, repro,
2005-08-15,0.91, -2.11, -4.80, 2.34, 1.74, 7.75, repro,
2005-08-16,2.52, -2.74, -3.32, 2.20, 1.65, 7.40, repro,
2005-08-17,2.05, -1.10, -2.08, 2.19, 1.64, 7.45, repro,
2005-08-18,2.32, -2.77, -2.25, 2.13, 1.60, 7.29, repro,
2005-08-19,1.63, -1.28, 0.34, 2.13, 1.59, 7.27, repro,
2005-08-20,2.08, -1.75, 2.16, 2.19, 1.64, 7.50, repro,
2005-08-21,0.75, -1.42, 4.88, 2.15, 1.60, 7.35, repro,
2005-08-22,1.34, -2.40, -0.60, 2.15, 1.59, 7.30, repro,
2005-08-23,2.45, -3.58, 1.92, 2.13, 1.59, 7.29, repro,
2005-08-24,1.78, -4.27, -1.02, 2.17, 1.65, 7.41, repro,
2005-08-25,1.69, -1.98, -1.73, 2.19, 1.65, 7.46, repro,
2005-08-26,1.95, -2.49, 2.17, 2.13, 1.59, 7.24, repro,
2005-08-27,2.66, -2.61, -4.92, 2.22, 1.61, 7.41, repro,
2005-08-28,2.06, -1.73, -2.49, 2.12, 1.58, 7.20, repro,
2005-08-29,1.34, 0.46, -6.81, 2.17, 1.64, 7.40, repro,
2005-08-30,0.44, -1.09, -3.93, 2.26, 1.71, 7.76, repro,
2005-08-31,1.27, -0.90, -4.53, 2.18, 1.65, 7.43, repro,
2005-09-01,1.54, -2.19, -1.40, 2.13, 1.59, 7.23, repro,
2005-09-02,2.65, -2.05, -2.25, 2.41, 1.74, 8.07, repro,
2005-09-03,1.78, -1.98, -0.97, 2.14, 1.59, 7.24, repro,
2005-09-04,1.12, -1.48, -0.69, 2.16, 1.64, 7.40, repro,
2005-09-05,1.77, -0.83, -5.45, 2.12, 1.59, 7.22, repro,
2005-09-06,1.27, -1.55, -3.76, 2.13, 1.59, 7.22, repro,
2005-09-07,2.51, -1.43, -5.25, 2.26, 1.66, 7.51, repro,
2005-09-08,0.79, -1.57, -6.71, 2.22, 1.61, 7.42, repro,
2005-09-09,2.09, -2.38, 0.06, 2.20, 1.60, 7.33, repro,
2005-09-10,0.33, -1.76, -1.74, 2.20, 1.60, 7.35, repro,
2005-09-11,2.12, -1.69, -2.80, 2.22, 1.61, 7.40, repro,
2005-09-12,1.76, -1.47, -2.54, 2.19, 1.61, 7.34, repro,
2005-09-13,2.29, -2.01, -1.91, 2.31, 1.69, 7.76, repro,
2005-09-14,2.52, -1.49, 1.57, 2.24, 1.64, 7.52, repro,
2005-09-15,1.53, -1.45, -3.54, 2.23, 1.65, 7.52, repro,
2005-09-16,1.52, -1.73, 2.14, 2.25, 1.64, 7.56, repro,
2005-09-17,1.21, -0.98, 1.20, 2.13, 1.58, 7.24, repro,
2005-09-18,2.10, -1.65, 0.86, 2.12, 1.57, 7.16, repro,
2005-09-19,1.89, -1.53, -5.27, 2.21, 1.61, 7.49, repro,
2005-09-20,1.87, -1.66, -5.24, 2.11, 1.58, 7.15, repro,
2005-09-21,0.98, -2.45, -4.53, 2.16, 1.62, 7.38, repro,
2005-09-22,2.02, -2.38, -6.07, 2.13, 1.58, 7.19, repro,
2005-09-23,0.24, -1.41, -3.40, 2.13, 1.60, 7.27, repro,
2005-09-24,1.61, -1.71, -9.79, 2.15, 1.63, 7.37, repro,
2005-09-25,0.60, -1.86, 0.51, 2.15, 1.62, 7.35, repro,
2005-09-26,1.55, -1.62, 1.92, 2.16, 1.62, 7.36, repro,
2005-09-27,1.87, -1.66, -0.80, 2.17, 1.63, 7.43, repro,
2005-09-28,0.74, -2.39, 6.99, 2.21, 1.61, 7.38, repro,
2005-09-29,2.19, -3.05, 2.79, 2.20, 1.62, 7.36, repro,
2005-09-30,2.76, -2.13, 3.66, 2.14, 1.59, 7.24, repro,
2005-10-01,1.57, -1.99, 9.27, 2.13, 1.58, 7.17, repro,
2005-10-02,0.34, -2.16, 5.64, 2.17, 1.62, 7.37, repro,
2005-10-03,0.66, -2.32, -0.71, 2.22, 1.66, 7.46, repro,
2005-10-04,2.69, -2.10, -3.37, 2.22, 1.67, 7.62, repro,
2005-10-05,0.36, -2.78, -3.74, 2.21, 1.62, 7.45, repro,
2005-10-06,1.52, -3.52, -4.06, 2.14, 1.58, 7.16, repro,
2005-10-07,0.86, -3.31, 2.85, 2.13, 1.58, 7.14, repro,
2005-10-08,1.20, -1.46, 0.83, 2.13, 1.57, 7.17, repro,
2005-10-09,0.73, -2.50, 3.07, 2.14, 1.58, 7.19, repro,
2005-10-10,1.10, -3.31, -2.74, 2.21, 1.67, 7.64, repro,
2005-10-11,-0.34, -2.05, -1.14, 2.16, 1.63, 7.34, repro,
2005-10-12,1.11, -2.02, 2.80, 2.16, 1.61, 7.29, repro,
2005-10-13,3.16, -1.68, 1.48, 2.16, 1.63, 7.33, repro,
2005-10-14,-0.15, -2.84, 7.44, 2.24, 1.69, 7.51, repro,
2005-10-15,1.73, -1.49, 15.94, 2.22, 1.63, 7.50, repro,
2005-10-16,-1.80, -3.66, 9.49, 2.22, 1.63, 7.64, repro,
2005-10-17,2.00, -2.28, 2.08, 2.14, 1.59, 7.20, repro,
2005-10-18,2.62, -2.93, 2.81, 2.28, 1.73, 7.79, repro,
2005-10-19,3.23, -1.47, -1.00, 2.22, 1.65, 7.55, repro,
2005-10-20,0.84, -1.49, -1.98, 2.26, 1.64, 7.52, repro,
2005-10-21,1.94, -2.12, 1.35, 2.23, 1.66, 7.64, repro,
2005-10-22,1.78, -1.74, 0.09, 2.14, 1.59, 7.23, repro,
2005-10-23,1.59, -2.57, 2.18, 2.13, 1.57, 7.15, repro,
2005-10-24,2.42, -1.77, -1.09, 2.13, 1.58, 7.17, repro,
2005-10-25,4.94, -1.54, -1.50, 2.22, 1.69, 7.47, repro,
2005-10-26,1.89, -2.22, -1.33, 2.22, 1.69, 7.57, repro,
2005-10-27,1.66, -3.18, -0.09, 2.16, 1.63, 7.40, repro,
2005-10-28,1.89, -2.95, 1.41, 2.14, 1.59, 7.23, repro,
2005-10-29,2.02, -1.67, 2.00, 2.16, 1.63, 7.40, repro,
2005-10-30,3.12, -0.94, -2.38, 2.12, 1.57, 7.12, repro,
2005-10-31,2.97, -1.06, -3.04, 2.28, 1.71, 7.73, repro,
2005-11-01,2.69, -1.62, -0.96, 2.35, 1.78, 7.97, repro,
2005-11-02,2.35, -1.68, -2.42, 2.27, 1.76, 7.78, repro,
2005-11-03,1.35, -2.44, 2.28, 2.20, 1.65, 7.41, repro,
2005-11-04,4.13, -1.13, -6.32, 2.28, 1.74, 7.75, repro,
2005-11-05,3.01, -1.78, -6.22, 2.25, 1.76, 7.66, repro,
2005-11-06,4.23, -0.92, 1.55, 2.21, 1.70, 7.55, repro,
2005-11-07,2.16, -1.94, -5.64, 2.27, 1.77, 7.80, repro,
2005-11-08,1.17, -0.08, -2.46, 2.28, 1.76, 7.83, repro,
2005-11-09,1.96, -2.10, -5.30, 2.33, 1.81, 7.95, repro,
2005-11-10,2.55, -0.40, -5.29, 2.42, 1.82, 8.13, repro,
2005-11-11,3.05, -1.93, 2.33, 2.31, 1.70, 7.81, repro,
2005-11-12,0.11, -0.84, -0.18, 2.12, 1.64, 7.28, repro,
2005-11-13,2.46, -1.36, -7.94, 2.39, 1.82, 8.05, repro,
2005-11-14,-0.51, -1.80, -7.40, 2.19, 1.65, 7.41, repro,
2005-11-15,2.09, -0.87, -8.20, 2.12, 1.57, 7.18, repro,
2005-11-16,3.13, -2.08, -17.61, 2.17, 1.62, 7.37, repro,
2005-11-17,1.83, -1.73, -11.15, 2.12, 1.57, 7.20, repro,
2005-11-18,1.83, -1.52, -10.90, 2.13, 1.58, 7.27, repro,
2005-11-19,1.69, -1.57, -9.00, 2.13, 1.59, 7.27, repro,
2005-11-20,1.73, -1.79, -11.32, 2.17, 1.61, 7.39, repro,
2005-11-21,0.66, -2.33, -2.60, 2.31, 1.67, 7.73, repro,
2005-11-22,1.00, -1.80, -6.48, 2.20, 1.68, 7.55, repro,
2005-11-23,1.18, -1.34, 1.08, 2.17, 1.61, 7.41, repro,
2005-11-24,1.94, -0.96, -0.62, 2.14, 1.59, 7.32, repro,
2005-11-25,2.23, -2.18, 1.06, 2.15, 1.62, 7.41, repro,
2005-11-26,2.35, -0.49, -2.09, 2.22, 1.69, 7.59, repro,
2005-11-27,0.74, -0.58, -9.24, 2.18, 1.65, 7.49, repro,
2005-11-28,1.61, -1.53, -9.92, 2.19, 1.66, 7.56, repro,
2005-11-29,0.87, -1.63, -1.94, 2.15, 1.62, 7.32, repro,
2005-11-30,2.68, -1.51, -12.75, 2.15, 1.61, 7.26, repro,
2005-12-01,2.31, -4.96, -11.78, 2.16, 1.63, 7.34, repro,
2005-12-02,2.27, -0.52, -3.06, 2.14, 1.61, 7.22, repro,
2005-12-03,0.90, -1.01, -7.94, 2.14, 1.60, 7.24, repro,
2005-12-04,1.90, -0.10, -13.59, 2.13, 1.57, 7.15, repro,
2005-12-05,2.38, -0.16, -14.93, 2.15, 1.61, 7.25, repro,
2005-12-06,2.04, -0.10, -15.27, 2.18, 1.61, 7.34, repro,
2005-12-07,2.14, -0.62, -6.84, 2.19, 1.65, 7.45, repro,
2005-12-08,0.95, 0.85, -6.87, 2.18, 1.66, 7.46, repro,
2005-12-09,1.28, 0.27, -9.62, 2.14, 1.61, 7.29, repro,
2005-12-10,2.76, 0.29, -7.51, 2.14, 1.61, 7.34, repro,
2005-12-11,2.22, -0.63, -5.08, 2.13, 1.58, 7.19, repro,
2005-12-12,0.91, -1.17, -3.91, 2.12, 1.57, 7.13, repro,
2005-12-13,1.30, -0.60, -11.60, 2.12, 1.57, 7.15, repro,
2005-12-14,0.55, -1.24, -17.41, 2.30, 1.74, 8.14, repro,
2005-12-15,2.66, -0.46, -13.69, 2.20, 1.62, 7.41, repro,
2005-12-16,1.74, -0.63, -6.43, 2.14, 1.61, 7.31, repro,
2005-12-17,2.20, -2.73, -4.10, 2.19, 1.66, 7.40, repro,
2005-12-18,1.43, -0.81, -0.96, 2.12, 1.64, 7.25, repro,
2005-12-19,0.74, -0.80, -18.57, 2.23, 1.74, 7.47, repro,
2005-12-20,2.15, 4.74, 6.50, 2.23, 1.74, 7.64, repro,
2005-12-21,2.48, -0.84, 0.70, 2.17, 1.70, 7.34, repro,
2005-12-22,5.34, 3.90, -9.00, 2.18, 1.73, 7.43, repro,
2005-12-23,1.56, -1.12, -11.45, 2.27, 1.77, 7.66, repro,
2005-12-24,1.21, 0.85, -6.47, 2.31, 1.83, 7.97, repro,
2005-12-25,-2.27, -1.02, 4.42, 2.20, 1.70, 7.46, repro,
2005-12-26,-1.07, -1.73, -4.46, 2.18, 1.65, 7.35, repro,
2005-12-27,2.66, -0.24, -7.66, 2.26, 1.73, 7.65, repro,
2005-12-28,1.20, 0.98, -10.04, 2.19, 1.69, 7.34, repro,
2005-12-29,2.01, 1.98, -15.69, 2.36, 1.78, 8.18, repro,
2005-12-30,-2.73, -0.64, 1.79, 2.37, 1.81, 8.05, repro,
2005-12-31,-1.56, -3.52, -2.65, 2.25, 1.75, 7.59, repro,
2006-01-01,2.71, 1.66, -4.23, 2.25, 1.75, 7.63, repro,
2006-01-02,0.51, 0.81, -3.62, 2.22, 1.70, 7.35, repro,
2006-01-03,1.00, 0.57, -1.14, 2.36, 1.92, 8.10, repro,
2006-01-04,2.51, 1.23, -12.29, 2.33, 1.88, 7.94, repro,
2006-01-05,1.51, 3.85, -19.66, 2.22, 1.76, 7.60, repro,
2006-01-06,0.07, -0.68, -3.06, 2.27, 1.78, 7.74, repro,
2006-01-07,4.04, -1.42, -5.99, 2.17, 1.65, 7.30, repro,
2006-01-08,3.78, 0.63, -9.46, 2.27, 1.79, 7.78, repro,
2006-01-09,1.55, 1.40, -9.96, 2.28, 1.80, 7.81, repro,
2006-01-10,2.91, -0.69, -4.65, 2.26, 1.80, 7.74, repro,
2006-01-11,0.69, 0.84, 1.63, 2.34, 1.85, 8.04, repro,
2006-01-12,3.33, 2.43, -12.44, 2.25, 1.74, 7.46, repro,
2006-01-13,2.71, 2.06, -2.70, 2.31, 1.84, 8.02, repro,
2006-01-14,3.26, 2.12, -6.56, 2.19, 1.68, 7.34, repro,
2006-01-15,2.61, 0.79, -8.75, 2.15, 1.63, 7.20, repro,
2006-01-16,1.23, 0.45, -5.78, 2.26, 1.79, 7.79, repro,
2006-01-17,1.12, 1.69, -6.26, 2.21, 1.66, 7.37, repro,
2006-01-18,2.45, 1.11, -2.94, 2.17, 1.63, 7.22, repro,
2006-01-19,3.18, 1.13, -11.97, 2.20, 1.63, 7.37, repro,
2006-01-20,2.09, 1.46, -13.56, 2.18, 1.62, 7.37, repro,
2006-01-21,2.38, 1.90, -10.64, 2.14, 1.60, 7.14, repro,
2006-01-22,1.58, 1.91, -14.10, 2.15, 1.59, 7.10, repro,
2006-01-23,2.31, 2.11, -13.49, 2.14, 1.58, 7.10, repro,
2006-01-24,2.55, 2.03, -10.78, 2.19, 1.63, 7.30, repro,
2006-01-25,3.39, 0.81, -10.34, 2.07, 1.55, 6.97, repro,
2006-01-26,2.25, 1.27, -10.80, 2.08, 1.55, 7.00, repro,
2006-01-27,2.98, 1.15, -7.59, 2.09, 1.55, 7.05, repro,
2006-01-28,3.16, 2.16, -10.33, 2.11, 1.55, 7.09, repro,
2006-01-29,1.66, 2.18, -14.72, 2.10, 1.55, 7.04, repro,
2006-01-30,2.72, 1.14, -7.81, 2.11, 1.55, 7.07, repro,
2006-01-31,1.55, 2.17, -4.74, 2.09, 1.54, 7.02, repro,
2006-02-01,1.80, 0.86, -5.62, 2.10, 1.56, 7.12, repro,
2006-02-02,0.69, 0.90, -0.85, 2.11, 1.55, 7.08, repro,
2006-02-03,1.30, 1.46, -4.27, 2.11, 1.55, 7.09, repro,
2006-02-04,1.21, 0.63, 1.65, 2.13, 1.55, 7.14, repro,
2006-02-05,1.52, 1.65, -9.34, 2.11, 1.53, 7.05, repro,
2006-02-06,0.76, 1.32, -10.05, 2.10, 1.54, 7.09, repro,
2006-02-07,1.73, 2.27, -17.67, 2.09, 1.53, 7.05, repro,
2006-02-08,1.60, 1.88, -14.75, 2.09, 1.52, 7.02, repro,
2006-02-09,1.52, 1.04, -12.54, 2.16, 1.55, 7.23, repro,
2006-02-10,1.20, 1.32, -13.06, 2.24, 1.58, 7.35, repro,
2006-02-11,1.11, 1.12, -18.50, 2.11, 1.54, 7.13, repro,
2006-02-12,1.29, 2.23, -17.91, 2.11, 1.53, 7.12, repro,
2006-02-13,0.64, 1.42, -12.91, 2.09, 1.52, 7.02, repro,
2006-02-14,-2.39, 1.97, -2.94, 2.10, 1.53, 7.07, repro,
2006-02-15,0.16, 0.99, -5.31, 2.12, 1.53, 7.15, repro,
2006-02-16,0.32, 1.26, -10.97, 2.14, 1.54, 7.18, repro,
2006-02-17,1.07, 1.33, -11.96, 2.12, 1.53, 7.12, repro,
2006-02-18,0.69, 1.28, -12.76, 2.11, 1.54, 7.12, repro,
2006-02-19,1.06, 1.47, -7.80, 2.11, 1.55, 7.12, repro,
2006-02-20,0.76, 1.94, -8.53, 2.11, 1.53, 7.11, repro,
2006-02-21,0.89, 1.84, -9.65, 2.13, 1.54, 7.21, repro,
2006-02-22,2.13, 1.91, -9.47, 2.13, 1.54, 7.18, repro,
2006-02-23,1.56, 1.94, -12.08, 2.10, 1.52, 7.04, repro,
2006-02-24,1.16, 1.15, -8.09, 2.09, 1.53, 7.06, repro,
2006-02-25,2.01, 2.62, -14.79, 2.10, 1.54, 7.14, repro,
2006-02-26,2.98, 0.80, -3.32, 2.11, 1.54, 7.16, repro,
2006-02-27,-1.88, 2.45, 2.21, 2.16, 1.56, 7.29, repro,
2006-02-28,0.82, 1.60, 3.71, 2.22, 1.60, 7.39, repro,
2006-03-01,-0.28, 1.01, 2.25, 2.22, 1.59, 7.36, repro,
2006-03-02,1.48, 1.15, -10.44, 2.11, 1.56, 7.19, repro,
2006-03-03,2.06, 0.54, -10.52, 2.26, 1.62, 7.65, repro,
2006-03-04,1.43, 0.84, -6.96, 2.11, 1.56, 7.17, repro,
2006-03-05,-0.20, 1.29, -2.84, 2.12, 1.55, 7.15, repro,
2006-03-06,3.07, 2.11, -9.20, 2.11, 1.55, 7.15, repro,
2006-03-07,1.59, 1.73, -6.33, 2.09, 1.54, 7.09, repro,
2006-03-08,0.40, 1.99, -5.41, 2.10, 1.55, 7.13, repro,
2006-03-09,1.03, 1.87, -5.20, 2.11, 1.56, 7.14, repro,
2006-03-10,1.27, 0.72, -2.45, 2.11, 1.56, 7.15, repro,
2006-03-11,0.45, 2.03, -3.76, 2.15, 1.56, 7.28, repro,
2006-03-12,0.07, 1.19, -9.54, 2.14, 1.56, 7.24, repro,
2006-03-13,0.43, 2.29, -4.81, 2.13, 1.56, 7.22, repro,
2006-03-14,1.67, 2.27, -6.86, 2.15, 1.57, 7.26, repro,
2006-03-15,0.51, 2.02, -3.15, 2.14, 1.58, 7.30, repro,
2006-03-16,-0.10, 1.33, -6.33, 2.22, 1.61, 7.53, repro,
2006-03-17,-0.41, 2.75, -6.47, 2.20, 1.59, 7.43, repro,
2006-03-18,-1.65, 1.84, -6.69, 2.13, 1.57, 7.21, repro,
2006-03-19,-2.20, 2.23, -12.12, 2.13, 1.57, 7.25, repro,
2006-03-20,1.23, 1.75, -8.62, 2.14, 1.58, 7.29, repro,
2006-03-21,0.18, 1.39, -7.30, 2.14, 1.59, 7.35, repro,
2006-03-22,0.87, 1.73, -15.10, 2.14, 1.58, 7.34, repro,
2006-03-23,3.16, 2.53, -5.50, 2.19, 1.61, 7.35, repro,
2006-03-24,3.69, 0.93, -12.27, 2.18, 1.61, 7.33, repro,
2006-03-25,1.90, 2.23, -7.27, 2.20, 1.62, 7.42, repro,
2006-03-26,0.65, 2.13, -4.82, 2.18, 1.61, 7.37, repro,
2006-03-27,0.99, 2.26, -1.09, 2.24, 1.69, 7.56, repro,
2006-03-28,2.48, 0.74, 1.63, 2.09, 1.58, 7.12, repro,
2006-03-29,0.43, 1.95, -1.62, 2.05, 1.57, 7.07, repro,
2006-03-30,1.51, 1.67, -6.86, 2.06, 1.56, 7.12, repro,
2006-03-31,0.46, 1.01, -1.57, 2.07, 1.57, 7.11, repro,
2006-04-01,0.28, 0.99, -0.57, 2.06, 1.57, 7.13, repro,
2006-04-02,2.16, 2.79, -3.15, 2.05, 1.55, 7.05, repro,
2006-04-03,0.85, 0.72, -2.68, 2.05, 1.56, 7.10, repro,
2006-04-04,1.23, 0.68, -6.46, 2.07, 1.56, 7.08, repro,
2006-04-05,0.75, 1.70, -5.92, 2.07, 1.56, 7.12, repro,
2006-04-06,0.14, 0.94, -7.44, 2.12, 1.61, 7.36, repro,
2006-04-07,0.14, 0.67, -6.76, 2.16, 1.62, 7.45, repro,
2006-04-08,2.37, 1.22, -3.05, 2.19, 1.60, 7.45, repro,
2006-04-09,0.45, 1.10, -10.07, 2.07, 1.57, 7.15, repro,
2006-04-10,1.94, -0.19, -5.56, 2.07, 1.57, 7.16, repro,
2006-04-11,1.91, -0.96, -0.62, 2.12, 1.60, 7.37, repro,
2006-04-12,0.45, 0.82, -2.58, 2.12, 1.63, 7.49, repro,
2006-04-13,0.51, 1.32, -10.80, 2.04, 1.56, 7.11, repro,
2006-04-14,0.04, 1.14, -2.86, 2.05, 1.55, 7.10, repro,
2006-04-15,0.37, 1.06, 4.01, 2.12, 1.61, 7.35, repro,
2006-04-16,3.09, 1.20, -1.47, 2.05, 1.58, 7.13, repro,
2006-04-17,0.23, 2.20, -7.62, 2.06, 1.58, 7.19, repro,
2006-04-18,0.56, 2.13, -11.40, 2.04, 1.56, 7.13, repro,
2006-04-19,0.75, 1.29, -9.05, 2.05, 1.56, 7.13, repro,
2006-04-20,1.62, 1.36, -4.80, 2.09, 1.60, 7.32, repro,
2006-04-21,1.54, 1.91, -5.77, 2.05, 1.56, 7.14, repro,
2006-04-22,1.01, 1.30, -2.44, 2.06, 1.56, 7.15, repro,
2006-04-23,0.87, 1.45, -9.05, 2.09, 1.60, 7.29, repro,
2006-04-24,0.76, 1.15, -7.45, 2.09, 1.60, 7.27, repro,
2006-04-25,1.66, 1.99, -6.66, 2.13, 1.67, 7.47, repro,
2006-04-26,2.17, 1.64, -5.77, 2.10, 1.60, 7.31, repro,
2006-04-27,0.70, 1.35, -12.24, 2.16, 1.61, 7.34, repro,
2006-04-28,0.75, 1.51, -10.92, 2.13, 1.57, 7.25, repro,
2006-04-29,1.15, 1.08, -11.71, 2.05, 1.55, 7.11, repro,
2006-04-30,0.89, 0.92, -4.71, 2.04, 1.55, 7.11, repro,
2006-05-01,1.38, 1.58, -11.96, 2.05, 1.56, 7.18, repro,
2006-05-02,1.33, 1.61, -9.63, 2.05, 1.56, 7.14, repro,
2006-05-03,1.94, 0.60, -8.15, 2.06, 1.56, 7.14, repro,
2006-05-04,0.65, 0.23, -6.74, 2.06, 1.56, 7.17, repro,
2006-05-05,1.14, -0.03, -7.78, 2.05, 1.55, 7.14, repro,
2006-05-06,1.53, 0.29, -0.76, 2.04, 1.55, 7.13, repro,
2006-05-07,0.70, 1.11, -8.38, 2.05, 1.56, 7.18, repro,
2006-05-08,-0.03, 1.67, -6.74, 2.04, 1.56, 7.13, repro,
2006-05-09,1.64, 0.20, -11.70, 2.13, 1.58, 7.29, repro,
2006-05-10,1.11, 0.78, -12.74, 2.06, 1.56, 7.22, repro,
2006-05-11,0.14, 0.42, -10.91, 2.05, 1.56, 7.17, repro,
2006-05-12,1.06, 1.18, -3.81, 2.04, 1.57, 7.21, repro,
2006-05-13,1.44, 0.84, -9.26, 2.05, 1.56, 7.15, repro,
2006-05-14,0.64, -0.56, -12.97, 2.06, 1.56, 7.18, repro,
2006-05-15,0.82, 0.67, -10.00, 2.08, 1.56, 7.27, repro,
2006-05-16,0.37, 1.22, -11.73, 2.08, 1.61, 7.41, repro,
2006-05-17,0.57, 0.50, -3.68, 2.16, 1.73, 7.86, repro,
2006-05-18,1.13, -0.09, -1.63, 2.06, 1.57, 7.18, repro,
2006-05-19,1.66, 1.21, -0.38, 2.12, 1.59, 7.28, repro,
2006-05-20,-1.31, -1.28, 0.31, 2.15, 1.59, 7.39, repro,
2006-05-21,-0.13, -2.39, 6.64, 2.15, 1.60, 7.39, repro,
2006-05-22,1.16, 0.77, 13.07, 2.27, 1.76, 7.94, repro,
2006-05-23,2.21, -2.32, 2.81, 2.12, 1.61, 7.35, repro,
2006-05-24,3.49, 3.25, -7.90, 2.12, 1.59, 7.31, repro,
2006-05-25,2.36, 0.14, -7.92, 2.25, 1.66, 7.66, repro,
2006-05-26,1.26, 0.71, -3.27, 2.19, 1.63, 7.56, repro,
2006-05-27,1.29, 0.28, -0.16, 2.11, 1.59, 7.31, repro,
2006-05-28,1.01, 0.53, -3.95, 2.10, 1.59, 7.24, repro,
2006-05-29,1.95, 0.90, -4.13, 2.12, 1.60, 7.30, repro,
2006-05-30,1.08, -0.09, -7.90, 2.17, 1.62, 7.41, repro,
2006-05-31,1.88, 1.42, -5.94, 2.15, 1.60, 7.43, repro,
2006-06-01,0.41, 0.82, -5.67, 2.17, 1.62, 7.52, repro,
2006-06-02,1.27, -1.92, -7.11, 2.28, 1.69, 7.86, repro,
2006-06-03,1.26, 1.46, 1.52, 2.20, 1.66, 7.63, repro,
2006-06-04,-0.35, 1.35, 1.08, 2.19, 1.63, 7.51, repro,
2006-06-05,1.14, -0.12, 0.84, 2.19, 1.61, 7.49, repro,
2006-06-06,0.70, 0.48, 0.57, 2.18, 1.60, 7.45, repro,
2006-06-07,1.02, 0.34, -5.31, 2.18, 1.60, 7.44, repro,
2006-06-08,-0.11, -0.19, -4.24, 2.11, 1.59, 7.31, repro,
2006-06-09,1.60, 0.84, -4.40, 2.10, 1.59, 7.23, repro,
2006-06-10,1.73, -0.39, -6.15, 2.11, 1.59, 7.26, repro,
2006-06-11,1.11, -0.51, -2.03, 2.17, 1.62, 7.49, repro,
2006-06-12,1.86, 0.10, -6.80, 2.13, 1.60, 7.34, repro,
2006-06-13,1.62, -0.72, -7.10, 2.18, 1.63, 7.52, repro,
2006-06-14,1.14, 0.30, 0.61, 2.13, 1.60, 7.33, repro,
2006-06-15,1.22, 0.90, -0.42, 2.09, 1.59, 7.22, repro,
2006-06-16,1.82, 1.10, -0.91, 2.10, 1.58, 7.22, repro,
2006-06-17,1.08, -0.08, 2.21, 2.10, 1.58, 7.26, repro,
2006-06-18,-0.02, 0.91, 0.84, 2.13, 1.64, 7.52, repro,
2006-06-19,0.65, -0.56, -2.92, 2.14, 1.64, 7.56, repro,
2006-06-20,1.17, -0.22, -0.71, 2.13, 1.64, 7.51, repro,
2006-06-21,1.16, -0.27, -4.48, 2.14, 1.63, 7.48, repro,
2006-06-22,1.08, 0.01, -3.13, 2.12, 1.63, 7.51, repro,
2006-06-23,2.03, -0.36, -5.80, 2.12, 1.63, 7.49, repro,
2006-06-24,0.99, -0.23, -10.63, 2.15, 1.65, 7.60, repro,
2006-06-25,1.65, -0.07, -10.95, 2.13, 1.64, 7.52, repro,
2006-06-26,1.43, 0.05, -5.54, 2.12, 1.64, 7.49, repro,
2006-06-27,1.32, -0.48, -3.84, 2.13, 1.64, 7.53, repro,
2006-06-28,2.41, -2.36, 2.59, 2.20, 1.65, 7.83, repro,
2006-06-29,-1.08, -1.34, 1.58, 2.11, 1.62, 7.53, repro,
2006-06-30,0.83, -1.22, -2.33, 2.11, 1.60, 7.41, repro,